OPS 4682 DEB, 19593

Orbit data source: Space-Track

OPS 4682 DEB, 19593 is space debris in LEO originally from a launch on Sat, 03 Apr 1965 UTC launched from the Air Force Western Test Range (AFWTR). Debris objects in space refer to the collection of defunct objects orbiting the Earth. Examples of debris include non-operational satellites, rocket bodies, and fragments generated from explosions, collisions, or faulty payload assembly.

Loading next visibility...
Identifier
19593, 1965-027AW
Orbit
LEO
Country
Flag of USUS
Related business
Manufacturer
Unknown
Mission
Spacecraft
Bus & Motor
Unknown
Mass
Unknown
Launch date (UTC)
1965-04-03 (61 years ago)
Launch vehicle
Unknown
Launch site
Air Force Western Test Range (AFWTR)
Object type
Payload
Rocket body
Debris
Shape & HBR
Unknown shape, 0.1 m
Radar Cross Section
Medium (>0.1 m² and <1 m²)

Expand to show TLE details & history
Last TLE update: 2 days ago

TLE from 2 days ago
0 OPS 4682 DEB
1 19593U 65027AW  26173.28363851 -.00000025  00000-0 -11603-3 0  9995
2 19593  90.2406   6.7186 0030210 103.8150  73.6055 12.95803733802773
Epoch: 2026-06-22T06:48Z
TLE epoch observation values (Epoch: 2026-06-22T06:48:26.367Z)
Latitude
2.14747°
Longitude
174.14594°
Altitude
1,274.731 km
Speed
7.222 km/s
True Right ascension
12h 26m 54s
True Declination
2° 08' 08"
Sunlit
Object was in daylight at epoch
Visualization orbit readout
Latitude
Unknown
Longitude
Unknown
Altitude
Unknown
Speed
Unknown
Apparent Right ascension
Unknown
Apparent Declination
Unknown
Sunlit
N/A
Visualization observer readout
Local Sidereal Time
21:10:06
Azimuth
Unknown
Elevation
Unknown
Doppler factor
Unknown
Orbital elements
Apogee altitude
1,298.828 km
Perigee altitude
1,252.583 km
Semi-major axis
7,653.842 km
Eccentricity
0.00302
Inclination
90.2406°
RAAN
6.7186°
Arg. of periapsis
103.815°
True anomaly
73.93796°
Mean anomaly
73.6055°
Eccentric anomaly
73.77169°
Mean motion
3.24133 °/min
Orbital period
111.07 mins
BSTAR
-0.00011603
Loading maneuver chart data...
Computing Atmospheric mass density...
Loading historical data...
Loading historical data...
Loading historical data...
Loading historical data...
Loading historical data...
Loading historical data...
Loading historical data...

Documentation

Showing up to 5 results
|